• In Latvia
  • List of Countries
  • For 7 days
  • Water Temperature
  • Satellite Maps
  • Weather Map
  • Weather Widgets
  • user-avatar
    Login

    Hourly Weather Shusha

    Today, 21 July, Saturday

    Time Temperature Precipitation Wind Pressure Humidity
    00:00 +21°C° 0 mm 2 mps 655 mmHg 80%
    01:00 +22°C° 0 mm 1 mps 655 mmHg 80%
    02:00 +21°C° 0 mm 1 mps 655 mmHg 81%
    03:00 +21°C° 0 mm 1 mps 655 mmHg 81%
    04:00 +21°C° 0 mm 1 mps 656 mmHg 79%
    05:00 +22°C° 0 mm 1 mps 656 mmHg 77%
    06:00 +22°C° 0 mm 1 mps 656 mmHg 75%
    07:00 +24°C° 0 mm 1 mps 657 mmHg 68%
    08:00 +25°C° 0 mm 2 mps 657 mmHg 62%
    09:00 +26°C° 0 mm 3 mps 658 mmHg 55%
    10:00 +27°C° 0 mm 3 mps 658 mmHg 51%
    11:00 +29°C° 0 mm 3 mps 658 mmHg 47%
    12:00 +30°C° 0 mm 3 mps 658 mmHg 43%
    13:00 +30°C° 0.1 mm 4 mps 658 mmHg 41%
    14:00 +32°C° 0.1 mm 4 mps 657 mmHg 39%
    15:00 +32°C° 0.1 mm 4 mps 657 mmHg 37%
    16:00 +32°C° 0 mm 4 mps 657 mmHg 39%
    17:00 +30°C° 0 mm 4 mps 657 mmHg 42%
    18:00 +29°C° 0 mm 4 mps 657 mmHg 45%
    19:00 +27°C° 0 mm 4 mps 657 mmHg 51%
    20:00 +25°C° 0 mm 3 mps 657 mmHg 57%
    21:00 +23°C° 0 mm 2 mps 657 mmHg 63%
    22:00 +23°C° 0 mm 2 mps 657 mmHg 65%
    23:00 +21°C° 0 mm 2 mps 657 mmHg 66%

    Tomorrow, 22 July, Sunday

    Time Temperature Precipitation Wind Pressure Humidity
    00:00 +22°C° 0 mm 1 mps 657 mmHg 68%
    01:00 +21°C° 0 mm 1 mps 657 mmHg 69%
    02:00 +21°C° 0 mm 1 mps 657 mmHg 69%
    03:00 +21°C° 0 mm 1 mps 657 mmHg 70%
    04:00 +21°C° 0 mm 1 mps 657 mmHg 68%
    05:00 +21°C° 0 mm 1 mps 657 mmHg 66%
    06:00 +22°C° 0 mm 1 mps 658 mmHg 64%
    07:00 +23°C° 0 mm 2 mps 658 mmHg 58%
    08:00 +25°C° 0 mm 2 mps 658 mmHg 51%
    09:00 +27°C° 0 mm 3 mps 659 mmHg 45%
    10:00 +27°C° 0 mm 3 mps 659 mmHg 43%
    11:00 +28°C° 0 mm 4 mps 658 mmHg 40%
    12:00 +29°C° 0 mm 4 mps 658 mmHg 38%
    13:00 +29°C° 0 mm 4 mps 658 mmHg 38%
    14:00 +30°C° 0 mm 4 mps 658 mmHg 37%
    15:00 +30°C° 0 mm 4 mps 657 mmHg 36%
    16:00 +29°C° 0 mm 4 mps 657 mmHg 38%
    17:00 +29°C° 0 mm 4 mps 657 mmHg 39%
    18:00 +28°C° 0 mm 4 mps 657 mmHg 41%
    19:00 +26°C° 0 mm 3 mps 656 mmHg 46%
    20:00 +24°C° 0 mm 2 mps 656 mmHg 52%
    21:00 +21°C° 0 mm 2 mps 656 mmHg 57%
    22:00 +21°C° 0 mm 2 mps 656 mmHg 59%
    23:00 +20°C° 0 mm 2 mps 656 mmHg 61%

    Day after tomorrow, 23 July, Monday

    Time Temperature Precipitation Wind Pressure Humidity
    00:00 +20°C° 0 mm 2 mps 656 mmHg 62%
    01:00 +20°C° 0 mm 2 mps 656 mmHg 63%
    02:00 +19°C° 0 mm 2 mps 656 mmHg 63%
    03:00 +19°C° 0 mm 2 mps 656 mmHg 63%
    04:00 +19°C° 0 mm 2 mps 656 mmHg 61%
    05:00 +20°C° 0 mm 2 mps 656 mmHg 59%
    06:00 +21°C° 0 mm 1 mps 656 mmHg 58%
    07:00 +23°C° 0 mm 2 mps 657 mmHg 52%
    08:00 +25°C° 0 mm 2 mps 657 mmHg 47%
    09:00 +27°C° 0 mm 2 mps 657 mmHg 41%
    10:00 +28°C° 0 mm 3 mps 657 mmHg 39%
    11:00 +29°C° 0 mm 3 mps 657 mmHg 36%
    12:00 +30°C° 0 mm 3 mps 657 mmHg 34%
    13:00 +30°C° 0 mm 3 mps 657 mmHg 33%
    14:00 +31°C° 0 mm 3 mps 656 mmHg 33%
    15:00 +32°C° 0 mm 4 mps 656 mmHg 32%
    16:00 +31°C° 0 mm 3 mps 656 mmHg 34%
    17:00 +30°C° 0 mm 3 mps 656 mmHg 35%
    18:00 +30°C° 0 mm 3 mps 656 mmHg 37%
    19:00 +28°C° 0.1 mm 2 mps 656 mmHg 43%
    20:00 +26°C° 0.1 mm 2 mps 656 mmHg 48%
    21:00 +24°C° 0.1 mm 1 mps 656 mmHg 54%
    22:00 +23°C° 0.1 mm 2 mps 656 mmHg 56%
    23:00 +21°C° 0.1 mm 2 mps 656 mmHg 57%

    24 July, Tuesday

    Time Temperature Precipitation Wind Pressure Humidity
    00:00 +21°C° 0.1 mm 2 mps 656 mmHg 59%
    01:00 +20°C° 0 mm 2 mps 656 mmHg 60%
    02:00 +20°C° 0 mm 2 mps 656 mmHg 60%
    03:00 +20°C° 0 mm 2 mps 656 mmHg 61%
    04:00 +20°C° 0 mm 2 mps 656 mmHg 59%
    05:00 +22°C° 0 mm 1 mps 656 mmHg 58%
    06:00 +22°C° 0 mm 1 mps 657 mmHg 57%
    07:00 +24°C° 0 mm 1 mps 657 mmHg 51%
    08:00 +26°C° 0 mm 2 mps 658 mmHg 46%
    09:00 +28°C° 0 mm 2 mps 658 mmHg 41%
    10:00 +29°C° 0 mm 3 mps 658 mmHg 38%
    11:00 +30°C° 0 mm 3 mps 658 mmHg 35%
    12:00 +31°C° 0 mm 3 mps 658 mmHg 32%
    13:00 +33°C° 0 mm 3 mps 658 mmHg 32%
    14:00 +33°C° 0 mm 3 mps 658 mmHg 31%
    15:00 +34°C° 0 mm 3 mps 658 mmHg 31%
    16:00 +33°C° 0 mm 3 mps 658 mmHg 32%
    17:00 +31°C° 0 mm 3 mps 658 mmHg 34%
    18:00 +31°C° 0 mm 3 mps 658 mmHg 36%
    19:00 +29°C° 0 mm 3 mps 658 mmHg 42%
    20:00 +26°C° 0 mm 2 mps 658 mmHg 48%
    21:00 +24°C° 0 mm 2 mps 658 mmHg 53%
    22:00 +24°C° 0 mm 2 mps 658 mmHg 55%
    23:00 +23°C° 0 mm 2 mps 658 mmHg 56%

    25 July, Wednesday

    Time Temperature Precipitation Wind Pressure Humidity
    00:00 +23°C° 0 mm 2 mps 658 mmHg 57%
    01:00 +23°C° 0 mm 2 mps 658 mmHg 57%
    02:00 +21°C° 0 mm 2 mps 658 mmHg 57%
    03:00 +21°C° 0 mm 2 mps 658 mmHg 57%
    04:00 +21°C° 0 mm 2 mps 658 mmHg 56%
    05:00 +23°C° 0 mm 1 mps 658 mmHg 54%
    06:00 +23°C° 0 mm 1 mps 659 mmHg 53%
    07:00 +25°C° 0 mm 2 mps 659 mmHg 48%
    08:00 +27°C° 0 mm 2 mps 659 mmHg 43%
    09:00 +29°C° 0 mm 2 mps 660 mmHg 38%
    10:00 +30°C° 0 mm 3 mps 660 mmHg 35%
    11:00 +33°C° 0 mm 3 mps 660 mmHg 32%
    12:00 +34°C° 0 mm 3 mps 659 mmHg 29%
    13:00 +34°C° 0 mm 4 mps 659 mmHg 29%
    14:00 +35°C° 0 mm 4 mps 659 mmHg 28%
    15:00 +35°C° 0 mm 4 mps 659 mmHg 28%
    16:00 +34°C° 0 mm 4 mps 658 mmHg 30%
    17:00 +33°C° 0 mm 4 mps 658 mmHg 33%
    18:00 +32°C° 0 mm 4 mps 658 mmHg 35%
    19:00 +29°C° 0 mm 3 mps 658 mmHg 40%
    20:00 +27°C° 0 mm 2 mps 658 mmHg 45%
    21:00 +25°C° 0 mm 2 mps 658 mmHg 49%
    22:00 +24°C° 0 mm 2 mps 658 mmHg 50%
    23:00 +24°C° 0 mm 2 mps 657 mmHg 52%

    26 July, Thursday

    Time Temperature Precipitation Wind Pressure Humidity
    00:00 +24°C° 0 mm 2 mps 657 mmHg 53%
    01:00 +23°C° 0 mm 2 mps 657 mmHg 53%
    02:00 +23°C° 0 mm 2 mps 657 mmHg 53%
    03:00 +23°C° 0 mm 2 mps 657 mmHg 54%
    04:00 +23°C° 0 mm 1 mps 657 mmHg 52%
    05:00 +24°C° 0 mm 1 mps 658 mmHg 50%
    06:00 +24°C° 0 mm 1 mps 658 mmHg 48%
    07:00 +26°C° 0 mm 2 mps 658 mmHg 43%
    08:00 +28°C° 0 mm 2 mps 659 mmHg 39%
    09:00 +30°C° 0 mm 2 mps 659 mmHg 34%
    10:00 +31°C° 0 mm 2 mps 659 mmHg 33%
    11:00 +31°C° 0 mm 2 mps 659 mmHg 32%
    12:00 +33°C° 0 mm 3 mps 658 mmHg 31%
    13:00 +34°C° 0 mm 3 mps 658 mmHg 29%
    14:00 +35°C° 0 mm 3 mps 658 mmHg 28%
    15:00 +36°C° 0 mm 4 mps 658 mmHg 26%
    16:00 +35°C° 0 mm 4 mps 658 mmHg 29%
    17:00 +34°C° 0 mm 3 mps 657 mmHg 32%
    18:00 +33°C° 0 mm 3 mps 657 mmHg 35%
    19:00 +30°C° 0 mm 3 mps 657 mmHg 40%
    20:00 +28°C° 0 mm 2 mps 657 mmHg 45%
    21:00 +26°C° 0 mm 2 mps 656 mmHg 49%
    22:00 +25°C° 0 mm 2 mps 656 mmHg 51%
    23:00 +25°C° 0 mm 2 mps 656 mmHg 52%
    Show more